Regional Weather Roundup
Issued by NWS Green Bay, WI

Home | Current Version | Previous Version | Graphics & Text | Print | Product List | Glossary Off
Versions: 1 2 3 4 5 6 7 8 9 10 11 12 13 14 15 16 17 18 19 20 21 22 23 24 25 26 27 28 29 30 31 32 33 34 35 36 37 38 39 40 41 42 43 44 45 46 47 48 49 50

000
ASUS43 KGRB 160910
RWRGRB

NORTH-CENTRAL AND NORTHEAST WISCONSIN REGIONAL WEATHER ROUNDUP
NATIONAL WEATHER SERVICE GREEN BAY WI
400 AM CDT TUE SEP 16 2014

WIZ005-009-010>012-018-019-161000-
NORTH CENTRAL WISCONSIN

CITY           SKY/WX    TMP DP  RH WIND       PRES   REMARKS
IRONWOOD       CLEAR     39  36  87 W5        30.11S
MANITOWISH WTR CLEAR     31  31 100 CALM      30.14S
ARBOR VITAE    CLEAR     37  35  92 CALM      30.15S
EAGLE RIVER    FOG       32  32 100 CALM      30.14S VSB 1
LAND O LAKES   CLEAR     30  30 100 CALM      30.14S
RHINELANDER    CLEAR     33  31  92 W6        30.16S
PHILLIPS       CLEAR     34  33  99 CALM      30.16S
ANTIGO         CLEAR     34  34  99 CALM      30.17S
TOMAHAWK       CLEAR     31  30  96 CALM      30.17S
MERRILL        MOCLDY    33  33  99 CALM      30.17F
$$

WIZ013-073-161000-
NORTHEAST WISCONSIN

CITY           SKY/WX    TMP DP  RH WIND       PRES   REMARKS
IRON MOUNTAIN  CLEAR     37  34  89 CALM      30.12F
MARINETTE      CLEAR     41  37  87 CALM      30.14F
OCONTO         CLEAR     36  36 100 CALM      30.16S
$$

WIZ017-030-035>037-045-161000-
CENTRAL WISCONSIN

CITY           SKY/WX    TMP DP  RH WIND       PRES   REMARKS
MEDFORD        CLEAR     35  35  97 CALM      30.18S
WAUSAU         CLEAR     39  37  92 N3        30.17S
MOSINEE        CLEAR     37  37 100 W3        30.19S
MARSHFIELD     CLEAR     38  35  89 W5        30.18F
WISC RAPIDS    CLEAR     37  36  96 CALM      30.21S FOG
STEVENS POINT  CLEAR     33  32  96 CALM      30.19F
WAUPACA        CLEAR     40  38  95 CALM      30.19S
SHAWANO        CLEAR     41  39  91 W6        30.17F
CLINTONVILLE   CLEAR     37  36  93 CALM      30.18S
$$

WIZ038-039-048-051-161000-
FOX VALLEY

CITY           SKY/WX    TMP DP  RH WIND       PRES   REMARKS
NWS GREEN BAY  CLEAR     40  39  97 W5        30.17F
APPLETON       CLEAR     39  37  93 W8        30.19S
OSHKOSH        CLEAR     43  40  89 W6        30.19S
FOND DU LAC    CLEAR     40  38  93 S3        30.20R
$$

WIZ022-050-052-161000-
EAST CENTRAL WISCONSIN

CITY           SKY/WX    TMP DP  RH WIND       PRES   REMARKS
STURGEON BAY   CLEAR     43  39  87 CALM      30.16S
MANITOWOC      CLEAR     44  41  89 CALM      30.18R
SHEBOYGAN      CLEAR     43  39  86 CALM      30.18S
$$

LMZ563-521-522-541>543-161000-
LAKESHORE

STATION/POSITION TIME  TEMP    WIND        PRES    VSBY  WAVE
                       AIR SEA DIR/SP/G                  HT/PER
                 (UTC) (F)     (DEG/KT/KT) (MB)    (MI)  (FT/S)
SHEBOYGAN LKSHOR 0900   47 48  290/  7/  8 1022.4R
KEWAUNEE LKSHORE 0900   45     290/  4/  5 1020.3S
NORTHPORT PIER   0900   50     260/  3/  6 1020.7S
N MID LAKE BUOY  0900   54 58  300/ 10/ 12 1020.3S         1/ 3
S GREEN BAY BUOY 0900   51     VRB  8/ 10  1021.9F
CHAMBERS ISLAND  0900   49     230/  5/ 11 1021.0S
MENOMINEE LKSHOR 0900   45     260/  5/  7 1021.3F
$$



USA.gov is the U.S. government's official web portal to all federal, state and local government web resources and services.